Jackson, MI

3:19 PM EST on November 17, 2019 (GMT -0500)
Jackson County-Reynolds

Weather History for KJXN - May, 2019

Change the Weather History Date:

Sunday, May 5, 2019

  Actual Average Record
Temperature  
Mean Temperature 55 °F 54 °F  
Max Temperature 72 °F 66 °F 89 °F (1952)
Min Temperature 38 °F 43 °F 30 °F (1987)
Degree Days  
Heating Degree Days 10 11  
Month to date heating degree days 54 58  
Since 1 July heating degree days 6451 6404  
Cooling Degree Days 0 0  
Month to date cooling degree days 0 0  
Year to date cooling degree days 0 6  
Growing Degree Days 4 (Base 50)    
Moisture  
Dew Point 41 °F    
Average Humidity 65    
Maximum Humidity 100    
Minimum Humidity 29    
Precipitation  
Precipitation 0.00 in 0.10 in 1.79 in (2015)
Month to date precipitation 0.18 0.51  
Year to date precipitation 8.42 7.80  
Sea Level Pressure  
Sea Level Pressure 29.89 in    
Wind  
Wind Speed 3 mph (WSW)    
Max Wind Speed 12 mph    
Max Gust Speed 17 mph    
Visibility 9 miles    
Events      
T = Trace of Precipitation, MM = Missing Value Source: NWS Daily Summary

Daily Weather History Graph

Daily Weather History Graph

Search for Another Location

Airport or City:

Astronomy

May. 05, 2019 Rise Set
Actual Time 6:28 AM EDT 8:41 PM EDT
Civil Twilight 5:57 AM EDT 9:12 PM EDT
Nautical Twilight 5:19 AM EDT 9:50 PM EDT
Astronomical Twilight 4:37 AM EDT 10:33 PM EDT
Moon 7:13 AM EDT (5/5) 9:33 PM EDT (5/5)
Length of Visible Light 15h 15m
Length of Day
14h 13m
New Moon, 1% of the Moon is Illuminated
May 5
New Moon
May 11
First Quarter
May 18
Full
May 26
Last Quarter
Jun 3
New

Hourly Weather History & Observations

Time (EDT) Temp. Dew Point Humidity Pressure Visibility Wind Dir Wind Speed Gust Speed Precip Events Conditions
12:56 AM 48.0 °F 43.0 °F 83% 29.92 in 10.0 mi South 4.6 mph - N/A   Clear
1:56 AM 48.0 °F 43.0 °F 83% 29.92 in 10.0 mi Calm Calm - N/A   Clear
2:56 AM 45.0 °F 42.1 °F 90% 29.90 in 10.0 mi Calm Calm - N/A   Clear
3:56 AM 39.9 °F 39.9 °F 100% 29.90 in 9.0 mi Calm Calm - N/A   Clear
4:56 AM 41.0 °F 39.9 °F 96% 29.91 in 10.0 mi Calm Calm - N/A   Clear
5:56 AM 39.9 °F 39.0 °F 97% 29.90 in 1.2 mi Calm Calm - N/A   Clear
6:10 AM 37.9 °F 37.9 °F 100% 29.89 in 3.0 mi Calm Calm - N/A   Clear
6:33 AM 39.0 °F 37.9 °F 96% 29.89 in 3.0 mi Calm Calm - N/A   Clear
6:56 AM 39.0 °F 37.9 °F 96% 29.91 in 10.0 mi Calm Calm - N/A   Clear
7:56 AM 45.0 °F 44.1 °F 97% 29.91 in 9.0 mi Calm Calm - N/A   Clear
8:56 AM 53.1 °F 46.9 °F 80% 29.92 in 10.0 mi WSW 4.6 mph - N/A   Clear
9:56 AM 57.9 °F 46.0 °F 65% 29.91 in 10.0 mi Variable 3.5 mph - N/A   Clear
10:56 AM 63.0 °F 44.1 °F 50% 29.90 in 10.0 mi West 4.6 mph - N/A   Clear
11:56 AM 64.9 °F 39.0 °F 39% 29.90 in 10.0 mi WNW 8.1 mph - N/A   Clear
12:56 PM 66.9 °F 39.9 °F 37% 29.88 in 10.0 mi Calm Calm - N/A   Clear
1:56 PM 68.0 °F 39.9 °F 36% 29.88 in 10.0 mi WSW 8.1 mph 17.3 mph N/A   Clear
2:56 PM 69.1 °F 39.0 °F 33% 29.87 in 10.0 mi West 6.9 mph - N/A   Clear
3:56 PM 70.0 °F 39.0 °F 32% 29.86 in 10.0 mi West 9.2 mph - N/A   Clear
4:56 PM 70.0 °F 39.0 °F 32% 29.84 in 10.0 mi West 3.5 mph - N/A   Clear
5:56 PM 71.1 °F 37.9 °F 30% 29.84 in 10.0 mi WNW 9.2 mph - N/A   Clear
6:56 PM 71.1 °F 37.0 °F 29% 29.84 in 10.0 mi NW 5.8 mph - N/A   Clear
7:56 PM 68.0 °F 39.0 °F 35% 29.84 in 10.0 mi West 3.5 mph - N/A   Clear
8:56 PM 63.0 °F 42.1 °F 46% 29.86 in 10.0 mi SW 3.5 mph - N/A   Clear
9:56 PM 57.9 °F 44.1 °F 60% 29.89 in 10.0 mi SW 3.5 mph - N/A   Clear
10:56 PM 53.1 °F 46.0 °F 77% 29.91 in 10.0 mi SW 3.5 mph - N/A   Clear
11:56 PM 52.0 °F 45.0 °F 77% 29.91 in 10.0 mi Calm Calm - N/A   Clear